Time,TemperatureF,DewpointF,PressureIn,WindDirection,WindDirectionDegrees,WindSpeedMPH,WindSpeedGustMPH,Humidity,HourlyPrecipIn,Conditions,Clouds,dailyrainin,SoftwareType,DateUTC
2013-03-04 00:00:00,33.9,19.5,30.06,WNW,290,3.0,6.0,55,0.00,,,0.00,WeatherCatV1.11B39,2013-03-04 05:00:00,
2013-03-04 00:05:00,33.9,19.5,30.05,NW,310,3.0,6.0,55,0.00,,,0.00,WeatherCatV1.11B39,2013-03-04 05:05:00,
2013-03-04 00:10:00,33.8,19.8,30.05,NW,308,4.0,9.0,56,0.00,,,0.00,WeatherCatV1.11B39,2013-03-04 05:10:00,
2013-03-04 00:15:00,33.6,19.6,30.05,NW,319,5.0,5.0,56,0.00,,,0.00,WeatherCatV1.11B39,2013-03-04 05:15:00,
2013-03-04 00:20:00,33.5,19.9,30.05,WNW,291,0.0,6.0,57,0.00,,,0.00,WeatherCatV1.11B39,2013-03-04 05:20:00,
2013-03-04 00:25:00,33.4,19.4,30.05,NW,308,0.0,7.0,56,0.00,,,0.00,WeatherCatV1.11B39,2013-03-04 05:25:00,
2013-03-04 00:30:00,33.3,19.3,30.05,NW,308,7.0,9.0,56,0.00,,,0.00,WeatherCatV1.11B39,2013-03-04 05:30:00,
2013-03-04 00:35:00,33.3,19.7,30.05,WNW,300,3.0,7.0,57,0.00,,,0.00,WeatherCatV1.11B39,2013-03-04 05:35:00,
2013-03-04 00:40:00,33.3,19.3,30.06,NW,309,1.0,8.0,56,0.00,,,0.00,WeatherCatV1.11B39,2013-03-04 05:40:00,
2013-03-04 00:45:00,33.2,19.6,30.06,West,275,0.0,8.0,57,0.00,,,0.00,WeatherCatV1.11B39,2013-03-04 05:45:00,
2013-03-04 00:50:00,33.2,19.6,30.06,NW,308,5.0,5.0,57,0.00,,,0.00,WeatherCatV1.11B39,2013-03-04 05:50:00,
2013-03-04 00:55:00,33.0,19.0,30.06,NW,306,2.0,10.0,56,0.00,,,0.00,WeatherCatV1.11B39,2013-03-04 05:55:00,
2013-03-04 01:00:00,33.1,19.5,30.06,WNW,303,1.0,5.0,57,0.00,,,0.00,WeatherCatV1.11B39,2013-03-04 06:00:00,
2013-03-04 01:05:00,33.1,19.1,30.07,WNW,282,5.0,11.0,56,0.00,,,0.00,WeatherCatV1.11B39,2013-03-04 06:05:00,
2013-03-04 01:10:00,33.1,19.1,30.07,WNW,286,0.0,11.0,56,0.00,,,0.00,WeatherCatV1.11B39,2013-03-04 06:10:00,
2013-03-04 01:15:00,33.0,19.5,30.07,WNW,290,3.0,10.0,57,0.00,,,0.00,WeatherCatV1.11B39,2013-03-04 06:15:00,
2013-03-04 01:20:00,32.9,19.4,30.07,WNW,300,5.0,9.0,57,0.00,,,0.00,WeatherCatV1.11B39,2013-03-04 06:20:00,
2013-03-04 01:25:00,32.9,19.4,30.07,NW,309,3.0,5.0,57,0.00,,,0.00,WeatherCatV1.11B39,2013-03-04 06:25:00,
2013-03-04 01:30:00,32.8,19.3,30.07,WNW,294,1.0,9.0,57,0.00,,,0.00,WeatherCatV1.11B39,2013-03-04 06:30:00,
2013-03-04 01:35:00,32.7,19.2,30.07,NW,315,3.0,8.0,57,0.00,,,0.00,WeatherCatV1.11B39,2013-03-04 06:35:00,
2013-03-04 01:40:00,32.7,19.2,30.08,NW,309,0.0,10.0,57,0.00,,,0.00,WeatherCatV1.11B39,2013-03-04 06:40:00,
2013-03-04 01:45:00,32.6,19.1,30.08,WNW,291,2.0,6.0,57,0.00,,,0.00,WeatherCatV1.11B39,2013-03-04 06:45:00,
2013-03-04 01:50:00,32.4,19.3,30.08,West,281,6.0,6.0,58,0.00,,,0.00,WeatherCatV1.11B39,2013-03-04 06:50:00,
2013-03-04 01:55:00,32.3,19.2,30.08,NW,313,2.0,7.0,58,0.00,,,0.00,WeatherCatV1.11B39,2013-03-04 06:55:00,
2013-03-04 02:00:00,32.3,19.2,30.08,WNW,298,10.0,10.0,58,0.00,,,0.00,WeatherCatV1.11B39,2013-03-04 07:00:00,
2013-03-04 02:05:00,32.2,19.1,30.08,WNW,291,5.0,7.0,58,0.00,,,0.00,WeatherCatV1.11B39,2013-03-04 07:05:00,
2013-03-04 02:10:00,32.2,19.1,30.08,WNW,286,2.0,6.0,58,0.00,,,0.00,WeatherCatV1.11B39,2013-03-04 07:10:00,
2013-03-04 02:15:00,32.1,19.4,30.08,NW,306,4.0,5.0,59,0.00,,,0.00,WeatherCatV1.11B39,2013-03-04 07:15:00,
2013-03-04 02:20:00,31.9,19.2,30.08,WNW,298,1.0,7.0,59,0.00,,,0.00,WeatherCatV1.11B39,2013-03-04 07:20:00,
2013-03-04 02:25:00,31.8,19.1,30.08,NW,304,0.0,8.0,59,0.00,,,0.00,WeatherCatV1.11B39,2013-03-04 07:25:00,
2013-03-04 02:30:00,31.7,19.4,30.08,NW,311,6.0,8.0,60,0.00,,,0.00,WeatherCatV1.11B39,2013-03-04 07:30:00,
2013-03-04 02:35:00,31.6,19.3,30.08,NW,306,6.0,9.0,60,0.00,,,0.00,WeatherCatV1.11B39,2013-03-04 07:35:00,
2013-03-04 02:40:00,31.5,19.2,30.08,WNW,298,5.0,7.0,60,0.00,,,0.00,WeatherCatV1.11B39,2013-03-04 07:40:00,
2013-03-04 02:45:00,31.3,19.0,30.08,WNW,300,4.0,9.0,60,0.00,,,0.00,WeatherCatV1.11B39,2013-03-04 07:45:00,
2013-03-04 02:50:00,31.3,19.4,30.09,WNW,302,8.0,8.0,61,0.00,,,0.00,WeatherCatV1.11B39,2013-03-04 07:50:00,
2013-03-04 02:55:00,31.2,19.0,30.09,NW,313,1.0,5.0,60,0.00,,,0.00,WeatherCatV1.11B39,2013-03-04 07:55:00,
2013-03-04 03:00:00,31.1,19.2,30.09,NW,309,3.0,6.0,61,0.00,,,0.00,WeatherCatV1.11B39,2013-03-04 08:00:00,
2013-03-04 03:05:00,30.9,19.1,30.09,WNW,298,1.0,5.0,61,0.00,,,0.00,WeatherCatV1.11B39,2013-03-04 08:05:00,
2013-03-04 03:10:00,30.7,18.9,30.10,WNW,294,1.0,2.0,61,0.00,,,0.00,WeatherCatV1.11B39,2013-03-04 08:10:00,
2013-03-04 03:15:00,30.6,19.1,30.10,WNW,300,0.0,5.0,62,0.00,,,0.00,WeatherCatV1.11B39,2013-03-04 08:15:00,
2013-03-04 03:20:00,30.4,19.3,30.10,WNW,300,3.0,7.0,63,0.00,,,0.00,WeatherCatV1.11B39,2013-03-04 08:20:00,
2013-03-04 03:25:00,30.2,19.1,30.10,WNW,298,2.0,8.0,63,0.00,,,0.00,WeatherCatV1.11B39,2013-03-04 08:25:00,
2013-03-04 03:30:00,30.1,19.0,30.10,WNW,297,0.0,6.0,63,0.00,,,0.00,WeatherCatV1.11B39,2013-03-04 08:30:00,
2013-03-04 03:35:00,30.1,19.0,30.10,WNW,303,2.0,9.0,63,0.00,,,0.00,WeatherCatV1.11B39,2013-03-04 08:35:00,
2013-03-04 03:40:00,30.1,19.0,30.11,WNW,284,3.0,7.0,63,0.00,,,0.00,WeatherCatV1.11B39,2013-03-04 08:40:00,
2013-03-04 03:45:00,30.1,19.0,30.11,WNW,301,4.0,7.0,63,0.00,,,0.00,WeatherCatV1.11B39,2013-03-04 08:45:00,
2013-03-04 03:50:00,30.2,19.1,30.11,NW,306,0.0,5.0,63,0.00,,,0.00,WeatherCatV1.11B39,2013-03-04 08:50:00,
2013-03-04 03:55:00,30.2,19.1,30.11,NW,304,2.0,5.0,63,0.00,,,0.00,WeatherCatV1.11B39,2013-03-04 08:55:00,
2013-03-04 04:00:00,30.1,19.4,30.11,WNW,299,2.0,5.0,64,0.00,,,0.00,WeatherCatV1.11B39,2013-03-04 09:00:00,
2013-03-04 04:05:00,30.0,19.3,30.11,WNW,299,0.0,3.0,64,0.00,,,0.00,WeatherCatV1.11B39,2013-03-04 09:05:00,
2013-03-04 04:10:00,29.9,19.2,30.11,WNW,299,3.0,3.0,64,0.00,,,0.00,WeatherCatV1.11B39,2013-03-04 09:10:00,
2013-03-04 04:15:00,29.7,19.8,30.11,WNW,300,4.0,4.0,66,0.00,,,0.00,WeatherCatV1.11B39,2013-03-04 09:15:00,
2013-03-04 04:20:00,29.5,19.6,30.11,WNW,297,0.0,4.0,66,0.00,,,0.00,WeatherCatV1.11B39,2013-03-04 09:20:00,
2013-03-04 04:25:00,29.3,19.4,30.12,WNW,297,0.0,4.0,66,0.00,,,0.00,WeatherCatV1.11B39,2013-03-04 09:25:00,
2013-03-04 04:31:00,29.2,19.3,30.12,WNW,294,0.0,5.0,66,0.00,,,0.00,WeatherCatV1.11B39,2013-03-04 09:31:00,
2013-03-04 04:36:00,29.1,19.2,30.13,WNW,293,1.0,4.0,66,0.00,,,0.00,WeatherCatV1.11B39,2013-03-04 09:36:00,
2013-03-04 04:41:00,29.0,19.4,30.14,WNW,282,3.0,6.0,67,0.00,,,0.00,WeatherCatV1.11B39,2013-03-04 09:41:00,
2013-03-04 04:46:00,28.8,19.2,30.14,WNW,292,1.0,6.0,67,0.00,,,0.00,WeatherCatV1.11B39,2013-03-04 09:46:00,
2013-03-04 04:51:00,28.7,19.2,30.14,WNW,284,0.0,2.0,67,0.00,,,0.00,WeatherCatV1.11B39,2013-03-04 09:51:00,
2013-03-04 04:56:00,28.6,19.4,30.13,WNW,292,0.0,5.0,68,0.00,,,0.00,WeatherCatV1.11B39,2013-03-04 09:56:00,
2013-03-04 05:01:00,28.4,19.5,30.14,WNW,290,1.0,5.0,69,0.00,,,0.00,WeatherCatV1.11B39,2013-03-04 10:01:00,
2013-03-04 05:06:00,28.3,19.1,30.14,WNW,297,0.0,5.0,68,0.00,,,0.00,WeatherCatV1.11B39,2013-03-04 10:06:00,
2013-03-04 05:11:00,28.3,19.1,30.14,WNW,297,0.0,4.0,68,0.00,,,0.00,WeatherCatV1.11B39,2013-03-04 10:11:00,
2013-03-04 05:16:00,28.3,19.5,30.14,WNW,296,0.0,1.0,69,0.00,,,0.00,WeatherCatV1.11B39,2013-03-04 10:16:00,
2013-03-04 05:21:00,28.3,19.5,30.15,WNW,296,2.0,5.0,69,0.00,,,0.00,WeatherCatV1.11B39,2013-03-04 10:21:00,
2013-03-04 05:26:00,28.4,19.5,30.15,WNW,295,0.0,2.0,69,0.00,,,0.00,WeatherCatV1.11B39,2013-03-04 10:26:00,
2013-03-04 05:31:00,28.4,19.5,30.15,WNW,295,0.0,2.0,69,0.00,,,0.00,WeatherCatV1.11B39,2013-03-04 10:31:00,
2013-03-04 05:36:00,28.4,19.5,30.15,WNW,295,0.0,2.0,69,0.00,,,0.00,WeatherCatV1.11B39,2013-03-04 10:36:00,
2013-03-04 05:41:00,28.3,19.5,30.16,WNW,295,0.0,0.0,69,0.00,,,0.00,WeatherCatV1.11B39,2013-03-04 10:41:00,
2013-03-04 05:46:00,28.0,19.5,30.16,WNW,295,0.0,0.0,70,0.00,,,0.00,WeatherCatV1.11B39,2013-03-04 10:46:00,
2013-03-04 05:51:00,27.8,19.6,30.16,WNW,294,0.0,2.0,71,0.00,,,0.00,WeatherCatV1.11B39,2013-03-04 10:51:00,
2013-03-04 05:56:00,27.5,19.7,30.16,WNW,294,5.0,5.0,72,0.00,,,0.00,WeatherCatV1.11B39,2013-03-04 10:56:00,
2013-03-04 06:01:00,27.3,19.2,30.16,WNW,294,0.0,2.0,71,0.00,,,0.00,WeatherCatV1.11B39,2013-03-04 11:01:00,
2013-03-04 06:06:00,27.3,19.2,30.16,WNW,294,1.0,1.0,71,0.00,,,0.00,WeatherCatV1.11B39,2013-03-04 11:06:00,
2013-03-04 06:11:00,27.3,19.5,30.16,WNW,293,0.0,3.0,72,0.00,,,0.00,WeatherCatV1.11B39,2013-03-04 11:11:00,
2013-03-04 06:16:00,27.3,19.5,30.16,WNW,293,0.0,0.0,72,0.00,,,0.00,WeatherCatV1.11B39,2013-03-04 11:16:00,
2013-03-04 06:21:00,27.2,19.4,30.16,WNW,293,0.0,0.0,72,0.00,,,0.00,WeatherCatV1.11B39,2013-03-04 11:21:00,
2013-03-04 06:26:00,27.0,19.5,30.16,WNW,293,0.0,0.0,73,0.00,,,0.00,WeatherCatV1.11B39,2013-03-04 11:26:00,
2013-03-04 06:31:00,26.7,19.2,30.15,WNW,293,0.0,0.0,73,0.00,,,0.00,WeatherCatV1.11B39,2013-03-04 11:31:00,
2013-03-04 06:36:00,26.4,18.9,30.16,WNW,293,0.0,0.0,73,0.00,,,0.00,WeatherCatV1.11B39,2013-03-04 11:36:00,
2013-03-04 06:41:00,26.2,19.1,30.16,WNW,293,0.0,0.0,74,0.00,,,0.00,WeatherCatV1.11B39,2013-03-04 11:41:00,
2013-03-04 06:46:00,26.0,18.9,30.16,WNW,293,0.0,1.0,74,0.00,,,0.00,WeatherCatV1.11B39,2013-03-04 11:46:00,
2013-03-04 06:51:00,25.8,19.0,30.16,WNW,296,0.0,1.0,75,0.00,,,0.00,WeatherCatV1.11B39,2013-03-04 11:51:00,
2013-03-04 06:56:00,25.6,18.8,30.16,WNW,296,0.0,2.0,75,0.00,,,0.00,WeatherCatV1.11B39,2013-03-04 11:56:00,
2013-03-04 07:01:00,25.5,18.7,30.17,WNW,296,0.0,0.0,75,0.00,,,0.00,WeatherCatV1.11B39,2013-03-04 12:01:00,
2013-03-04 07:06:00,25.5,18.7,30.16,WNW,296,0.0,0.0,75,0.00,,,0.00,WeatherCatV1.11B39,2013-03-04 12:06:00,
2013-03-04 07:11:00,25.5,18.7,30.16,WNW,296,0.0,0.0,75,0.00,,,0.00,WeatherCatV1.11B39,2013-03-04 12:11:00,
2013-03-04 07:16:00,25.5,18.7,30.17,WNW,296,0.0,0.0,75,0.00,,,0.00,WeatherCatV1.11B39,2013-03-04 12:16:00,
2013-03-04 07:21:00,25.6,19.1,30.17,WNW,296,0.0,0.0,76,0.00,,,0.00,WeatherCatV1.11B39,2013-03-04 12:21:00,
2013-03-04 07:26:00,25.8,19.6,30.17,WNW,296,0.0,0.0,77,0.00,,,0.00,WeatherCatV1.11B39,2013-03-04 12:26:00,
2013-03-04 07:31:00,26.0,19.8,30.17,WNW,296,0.0,0.0,77,0.00,,,0.00,WeatherCatV1.11B39,2013-03-04 12:31:00,
2013-03-04 07:36:00,26.3,20.1,30.17,WNW,296,0.0,0.0,77,0.00,,,0.00,WeatherCatV1.11B39,2013-03-04 12:36:00,
2013-03-04 07:41:00,26.5,20.3,30.17,WNW,296,0.0,0.0,77,0.00,,,0.00,WeatherCatV1.11B39,2013-03-04 12:41:00,
2013-03-04 07:46:00,26.9,20.7,30.17,WNW,296,0.0,0.0,77,0.00,,,0.00,WeatherCatV1.11B39,2013-03-04 12:46:00,
2013-03-04 07:51:00,27.3,21.1,30.17,WNW,296,0.0,0.0,77,0.00,,,0.00,WeatherCatV1.11B39,2013-03-04 12:51:00,
2013-03-04 07:56:00,27.9,21.0,30.18,WNW,296,0.0,0.0,75,0.00,,,0.00,WeatherCatV1.11B39,2013-03-04 12:56:00,
2013-03-04 08:01:00,28.6,21.4,30.18,WNW,296,0.0,0.0,74,0.00,,,0.00,WeatherCatV1.11B39,2013-03-04 13:01:00,
2013-03-04 08:06:00,29.3,21.4,30.18,WNW,296,0.0,0.0,72,0.00,,,0.00,WeatherCatV1.11B39,2013-03-04 13:06:00,
2013-03-04 08:11:00,30.0,21.8,30.19,WNW,296,0.0,1.0,71,0.00,,,0.00,WeatherCatV1.11B39,2013-03-04 13:11:00,
2013-03-04 08:16:00,30.6,22.0,30.19,WNW,296,0.0,0.0,70,0.00,,,0.00,WeatherCatV1.11B39,2013-03-04 13:16:00,
2013-03-04 08:21:00,31.1,22.1,30.19,WNW,296,0.0,0.0,69,0.00,,,0.00,WeatherCatV1.11B39,2013-03-04 13:21:00,
2013-03-04 08:26:00,31.7,22.0,30.20,WNW,296,0.0,0.0,67,0.00,,,0.00,WeatherCatV1.11B39,2013-03-04 13:26:00,
2013-03-04 08:31:00,32.2,22.8,30.20,WNW,296,0.0,2.0,68,0.00,,,0.00,WeatherCatV1.11B39,2013-03-04 13:31:00,
2013-03-04 08:36:00,32.8,22.0,30.20,WNW,296,0.0,1.0,64,0.00,,,0.00,WeatherCatV1.11B39,2013-03-04 13:36:00,
2013-03-04 08:41:00,33.4,22.6,30.20,NW,323,5.0,5.0,64,0.00,,,0.00,WeatherCatV1.11B39,2013-03-04 13:41:00,
2013-03-04 08:46:00,34.1,22.1,30.20,NNE,17,1.0,4.0,61,0.00,,,0.00,WeatherCatV1.11B39,2013-03-04 13:46:00,
2013-03-04 08:51:00,34.5,21.7,30.20,NNE,13,1.0,4.0,59,0.00,,,0.00,WeatherCatV1.11B39,2013-03-04 13:51:00,
2013-03-04 08:56:00,35.0,21.7,30.20,NNE,13,2.0,5.0,58,0.00,,,0.00,WeatherCatV1.11B39,2013-03-04 13:56:00,
2013-03-04 09:01:00,35.3,21.6,30.20,NNE,19,0.0,3.0,57,0.00,,,0.00,WeatherCatV1.11B39,2013-03-04 14:01:00,
2013-03-04 09:06:00,35.7,22.4,30.21,NNE,17,0.0,2.0,58,0.00,,,0.00,WeatherCatV1.11B39,2013-03-04 14:06:00,
2013-03-04 09:12:00,36.2,22.5,30.21,NNE,16,2.0,2.0,57,0.00,,,0.00,WeatherCatV1.11B39,2013-03-04 14:12:00,
2013-03-04 09:17:00,36.9,22.3,30.21,North,355,0.0,3.0,55,0.00,,,0.00,WeatherCatV1.11B39,2013-03-04 14:17:00,
2013-03-04 09:22:00,37.6,22.0,30.21,North,355,0.0,0.0,53,0.00,,,0.00,WeatherCatV1.11B39,2013-03-04 14:22:00,
2013-03-04 09:27:00,38.3,21.8,30.21,North,355,0.0,2.0,51,0.00,,,0.00,WeatherCatV1.11B39,2013-03-04 14:27:00,
2013-03-04 09:32:00,38.7,22.6,30.21,North,355,0.0,1.0,52,0.00,,,0.00,WeatherCatV1.11B39,2013-03-04 14:32:00,
2013-03-04 09:37:00,39.1,22.5,30.21,NNW,333,0.0,2.0,51,0.00,,,0.00,WeatherCatV1.11B39,2013-03-04 14:37:00,
2013-03-04 09:42:00,40.4,22.3,30.21,North,355,2.0,4.0,48,0.00,,,0.00,WeatherCatV1.11B39,2013-03-04 14:42:00,
2013-03-04 09:47:00,40.7,22.1,30.21,North,355,2.0,4.0,47,0.00,,,0.00,WeatherCatV1.11B39,2013-03-04 14:47:00,
2013-03-04 09:52:00,41.1,21.9,30.20,NNE,21,0.0,0.0,46,0.00,,,0.00,WeatherCatV1.11B39,2013-03-04 14:52:00,
2013-03-04 09:57:00,41.5,21.2,30.21,West,269,5.0,5.0,44,0.00,,,0.00,WeatherCatV1.11B39,2013-03-04 14:57:00,
2013-03-04 10:02:00,42.1,21.8,30.20,WNW,290,1.0,1.0,44,0.00,,,0.00,WeatherCatV1.11B39,2013-03-04 15:02:00,
2013-03-04 10:07:00,42.9,22.5,30.20,NNE,13,1.0,4.0,44,0.00,,,0.00,WeatherCatV1.11B39,2013-03-04 15:07:00,
2013-03-04 10:12:00,42.9,20.8,30.20,East,80,0.0,6.0,41,0.00,,,0.00,WeatherCatV1.11B39,2013-03-04 15:12:00,
2013-03-04 10:17:00,42.8,20.7,30.20,NE,55,0.0,0.0,41,0.00,,,0.00,WeatherCatV1.11B39,2013-03-04 15:17:00,
2013-03-04 10:22:00,42.5,19.9,30.19,WNW,286,0.0,0.0,40,0.00,,,0.00,WeatherCatV1.11B39,2013-03-04 15:22:00,
2013-03-04 10:27:00,43.6,20.9,30.19,NNE,22,8.0,8.0,40,0.00,,,0.00,WeatherCatV1.11B39,2013-03-04 15:27:00,
2013-03-04 10:32:00,43.9,20.6,30.19,North,5,4.0,6.0,39,0.00,,,0.00,WeatherCatV1.11B39,2013-03-04 15:32:00,
2013-03-04 10:37:00,43.6,20.3,30.19,North,5,0.0,1.0,39,0.00,,,0.00,WeatherCatV1.11B39,2013-03-04 15:37:00,
2013-03-04 10:42:00,44.0,21.2,30.19,WNW,301,0.0,1.0,40,0.00,,,0.00,WeatherCatV1.11B39,2013-03-04 15:42:00,
2013-03-04 10:47:00,44.9,20.2,30.19,North,0,4.0,5.0,37,0.00,,,0.00,WeatherCatV1.11B39,2013-03-04 15:47:00,
2013-03-04 10:52:00,44.5,20.5,30.20,NW,321,4.0,4.0,38,0.00,,,0.00,WeatherCatV1.11B39,2013-03-04 15:52:00,
2013-03-04 10:57:00,44.8,20.1,30.20,NNW,329,0.0,5.0,37,0.00,,,0.00,WeatherCatV1.11B39,2013-03-04 15:57:00,
2013-03-04 11:02:00,45.6,20.8,30.20,NE,34,0.0,0.0,37,0.00,,,0.00,WeatherCatV1.11B39,2013-03-04 16:02:00,
2013-03-04 11:07:00,46.1,20.6,30.20,NW,325,4.0,4.0,36,0.00,,,0.00,WeatherCatV1.11B39,2013-03-04 16:07:00,
2013-03-04 11:12:00,46.5,21.6,30.19,WNW,285,0.0,0.0,37,0.00,,,0.00,WeatherCatV1.11B39,2013-03-04 16:12:00,
2013-03-04 11:17:00,46.9,20.7,30.19,East,92,0.0,8.0,35,0.00,,,0.00,WeatherCatV1.11B39,2013-03-04 16:17:00,
2013-03-04 11:22:00,47.2,20.3,30.19,NE,46,3.0,4.0,34,0.00,,,0.00,WeatherCatV1.11B39,2013-03-04 16:22:00,
2013-03-04 11:27:00,48.4,21.3,30.19,NE,40,3.0,4.0,34,0.00,,,0.00,WeatherCatV1.11B39,2013-03-04 16:27:00,
2013-03-04 11:32:00,47.9,20.9,30.18,WSW,258,0.0,4.0,34,0.00,,,0.00,WeatherCatV1.11B39,2013-03-04 16:32:00,
2013-03-04 11:37:00,47.9,20.2,30.18,West,266,0.0,3.0,33,0.00,,,0.00,WeatherCatV1.11B39,2013-03-04 16:37:00,
2013-03-04 11:42:00,48.5,20.7,30.18,WNW,284,6.0,6.0,33,0.00,,,0.00,WeatherCatV1.11B39,2013-03-04 16:42:00,
2013-03-04 11:47:00,49.0,21.9,30.18,NNE,17,0.0,7.0,34,0.00,,,0.00,WeatherCatV1.11B39,2013-03-04 16:47:00,
2013-03-04 11:52:00,49.7,21.1,30.18,WNW,302,0.0,5.0,32,0.00,,,0.00,WeatherCatV1.11B39,2013-03-04 16:52:00,
2013-03-04 11:57:00,49.7,21.1,30.17,WNW,295,0.0,1.0,32,0.00,,,0.00,WeatherCatV1.11B39,2013-03-04 16:57:00,
2013-03-04 12:02:00,49.0,20.4,30.17,NE,36,3.0,4.0,32,0.00,,,0.00,WeatherCatV1.11B39,2013-03-04 17:02:00,
2013-03-04 12:07:00,49.2,21.3,30.17,North,355,6.0,7.0,33,0.00,,,0.00,WeatherCatV1.11B39,2013-03-04 17:07:00,
2013-03-04 12:12:00,49.7,21.1,30.16,North,355,0.0,7.0,32,0.00,,,0.00,WeatherCatV1.11B39,2013-03-04 17:12:00,
2013-03-04 12:17:00,49.6,20.2,30.16,North,355,0.0,6.0,31,0.00,,,0.00,WeatherCatV1.11B39,2013-03-04 17:17:00,
2013-03-04 12:22:00,50.5,21.0,30.15,NE,53,4.0,6.0,31,0.00,,,0.00,WeatherCatV1.11B39,2013-03-04 17:22:00,
2013-03-04 12:27:00,50.3,21.6,30.15,NNE,19,2.0,4.0,32,0.00,,,0.00,WeatherCatV1.11B39,2013-03-04 17:27:00,
2013-03-04 12:32:00,51.0,22.2,30.15,NE,53,0.0,1.0,32,0.00,,,0.00,WeatherCatV1.11B39,2013-03-04 17:32:00,
2013-03-04 12:37:00,51.7,21.3,30.15,NNW,329,0.0,9.0,30,0.00,,,0.00,WeatherCatV1.11B39,2013-03-04 17:37:00,
2013-03-04 12:42:00,51.0,21.4,30.15,NNW,328,1.0,1.0,31,0.00,,,0.00,WeatherCatV1.11B39,2013-03-04 17:42:00,
2013-03-04 12:47:00,51.2,22.4,30.15,NW,318,0.0,1.0,32,0.00,,,0.00,WeatherCatV1.11B39,2013-03-04 17:47:00,
2013-03-04 12:52:00,51.5,21.1,30.14,NE,51,3.0,3.0,30,0.00,,,0.00,WeatherCatV1.11B39,2013-03-04 17:52:00,
2013-03-04 12:57:00,52.9,21.5,30.14,ENE,67,1.0,3.0,29,0.00,,,0.00,WeatherCatV1.11B39,2013-03-04 17:57:00,
2013-03-04 13:02:00,52.8,20.6,30.14,WNW,302,5.0,6.0,28,0.00,,,0.00,WeatherCatV1.11B39,2013-03-04 18:02:00,
2013-03-04 13:07:00,53.1,20.0,30.13,NNW,340,4.0,4.0,27,0.00,,,0.00,WeatherCatV1.11B39,2013-03-04 18:07:00,
2013-03-04 13:12:00,53.8,21.5,30.13,WNW,297,1.0,4.0,28,0.00,,,0.00,WeatherCatV1.11B39,2013-03-04 18:12:00,
2013-03-04 13:17:00,53.0,19.9,30.13,NNW,340,5.0,7.0,27,0.00,,,0.00,WeatherCatV1.11B39,2013-03-04 18:17:00,
2013-03-04 13:22:00,52.6,19.6,30.13,ENE,73,0.0,4.0,27,0.00,,,0.00,WeatherCatV1.11B39,2013-03-04 18:22:00,
2013-03-04 13:27:00,53.6,22.1,30.12,WNW,300,7.0,7.0,29,0.00,,,0.00,WeatherCatV1.11B39,2013-03-04 18:27:00,
2013-03-04 13:29:00,54.0,20.8,30.12,West,273,1.0,7.0,27,0.00,,,0.00,WeatherCatV1.11B39,2013-03-04 18:29:00,
2013-03-04 13:34:00,53.7,22.2,30.12,West,273,0.0,3.0,29,0.00,,,0.00,WeatherCatV1.11B39,2013-03-04 18:34:00,
2013-03-04 13:39:00,53.7,20.5,30.12,West,269,0.0,4.0,27,0.00,,,0.00,WeatherCatV1.11B39,2013-03-04 18:39:00,
2013-03-04 13:44:00,53.6,21.3,30.12,NE,35,3.0,5.0,28,0.00,,,0.00,WeatherCatV1.11B39,2013-03-04 18:44:00,
2013-03-04 13:49:00,54.8,20.6,30.12,West,270,0.0,5.0,26,0.00,,,0.00,WeatherCatV1.11B39,2013-03-04 18:49:00,
2013-03-04 13:51:00,54.8,20.6,30.12,West,269,0.0,4.0,26,0.00,,,0.00,WeatherCatV1.11B39,2013-03-04 18:51:00,
2013-03-04 13:56:00,55.2,20.9,30.11,NNW,331,3.0,5.0,26,0.00,,,0.00,WeatherCatV1.11B39,2013-03-04 18:56:00,
2013-03-04 14:01:00,56.7,20.3,30.11,NW,315,4.0,7.0,24,0.00,,,0.00,WeatherCatV1.11B39,2013-03-04 19:01:00,
2013-03-04 14:06:00,56.5,20.2,30.11,WSW,254,2.0,9.0,24,0.00,,,0.00,WeatherCatV1.11B39,2013-03-04 19:06:00,
2013-03-04 14:11:00,57.6,21.1,30.11,North,0,2.0,3.0,24,0.00,,,0.00,WeatherCatV1.11B39,2013-03-04 19:11:00,
2013-03-04 14:16:00,57.1,21.6,30.10,NNW,342,4.0,8.0,25,0.00,,,0.00,WeatherCatV1.11B39,2013-03-04 19:16:00,
2013-03-04 14:21:00,57.8,21.3,30.10,NW,309,5.0,5.0,24,0.00,,,0.00,WeatherCatV1.11B39,2013-03-04 19:21:00,
2013-03-04 14:26:00,57.3,18.8,30.10,NNW,334,2.0,6.0,22,0.00,,,0.00,WeatherCatV1.11B39,2013-03-04 19:26:00,
2013-03-04 14:31:00,57.2,20.7,30.10,NW,304,0.0,4.0,24,0.00,,,0.00,WeatherCatV1.11B39,2013-03-04 19:31:00,
2013-03-04 14:36:00,57.2,19.7,30.09,NW,310,0.0,7.0,23,0.00,,,0.00,WeatherCatV1.11B39,2013-03-04 19:36:00,
2013-03-04 14:41:00,57.3,20.8,30.09,NW,320,1.0,4.0,24,0.00,,,0.00,WeatherCatV1.11B39,2013-03-04 19:41:00,
2013-03-04 14:46:00,58.4,20.8,30.09,WNW,294,4.0,9.0,23,0.00,,,0.00,WeatherCatV1.11B39,2013-03-04 19:46:00,
2013-03-04 14:51:00,58.0,19.4,30.09,NW,324,0.0,4.0,22,0.00,,,0.00,WeatherCatV1.11B39,2013-03-04 19:51:00,
2013-03-04 14:56:00,58.1,19.5,30.09,NW,320,0.0,7.0,22,0.00,,,0.00,WeatherCatV1.11B39,2013-03-04 19:56:00,
2013-03-04 15:01:00,59.0,20.2,30.09,SSE,165,2.0,4.0,22,0.00,,,0.00,WeatherCatV1.11B39,2013-03-04 20:01:00,
2013-03-04 15:06:00,59.0,20.2,30.09,NW,318,2.0,5.0,22,0.00,,,0.00,WeatherCatV1.11B39,2013-03-04 20:06:00,
2013-03-04 15:11:00,59.9,19.9,30.09,SSW,201,3.0,7.0,21,0.00,,,0.00,WeatherCatV1.11B39,2013-03-04 20:11:00,
2013-03-04 15:16:00,60.4,19.2,30.08,SW,230,2.0,4.0,20,0.00,,,0.00,WeatherCatV1.11B39,2013-03-04 20:16:00,
2013-03-04 15:21:00,59.8,18.7,30.08,WSW,244,4.0,4.0,20,0.00,,,0.00,WeatherCatV1.11B39,2013-03-04 20:21:00,
2013-03-04 15:26:00,60.2,17.8,30.08,West,265,2.0,2.0,19,0.00,,,0.00,WeatherCatV1.11B39,2013-03-04 20:26:00,
2013-03-04 15:31:00,60.1,17.7,30.08,WSW,250,2.0,6.0,19,0.00,,,0.00,WeatherCatV1.11B39,2013-03-04 20:31:00,
2013-03-04 15:36:00,60.3,16.6,30.07,WSW,240,0.0,3.0,18,0.00,,,0.00,WeatherCatV1.11B39,2013-03-04 20:36:00,
2013-03-04 15:41:00,60.1,17.7,30.07,NE,55,0.0,3.0,19,0.00,,,0.00,WeatherCatV1.11B39,2013-03-04 20:41:00,
2013-03-04 15:46:00,60.4,19.2,30.07,NE,53,1.0,2.0,20,0.00,,,0.00,WeatherCatV1.11B39,2013-03-04 20:46:00,
2013-03-04 15:51:00,60.7,18.2,30.07,North,350,3.0,6.0,19,0.00,,,0.00,WeatherCatV1.11B39,2013-03-04 20:51:00,
2013-03-04 15:56:00,60.2,17.8,30.07,NNW,348,3.0,7.0,19,0.00,,,0.00,WeatherCatV1.11B39,2013-03-04 20:56:00,
2013-03-04 16:01:00,60.0,18.8,30.07,North,0,0.0,2.0,20,0.00,,,0.00,WeatherCatV1.11B39,2013-03-04 21:01:00,
2013-03-04 16:06:00,60.1,22.2,30.07,North,0,2.0,3.0,23,0.00,,,0.00,WeatherCatV1.11B39,2013-03-04 21:06:00,
2013-03-04 16:11:00,60.5,19.2,30.07,North,0,4.0,5.0,20,0.00,,,0.00,WeatherCatV1.11B39,2013-03-04 21:11:00,
2013-03-04 16:16:00,60.3,17.9,30.07,NW,314,4.0,5.0,19,0.00,,,0.00,WeatherCatV1.11B39,2013-03-04 21:16:00,
2013-03-04 16:21:00,60.1,20.0,30.06,WNW,283,3.0,4.0,21,0.00,,,0.00,WeatherCatV1.11B39,2013-03-04 21:21:00,
2013-03-04 16:26:00,60.0,21.1,30.06,West,275,5.0,9.0,22,0.00,,,0.00,WeatherCatV1.11B39,2013-03-04 21:26:00,
2013-03-04 16:31:00,59.8,21.9,30.06,NW,305,6.0,6.0,23,0.00,,,0.00,WeatherCatV1.11B39,2013-03-04 21:31:00,
2013-03-04 16:36:00,59.7,24.8,30.06,NW,307,3.0,8.0,26,0.00,,,0.00,WeatherCatV1.11B39,2013-03-04 21:36:00,
2013-03-04 16:41:00,59.3,26.2,30.06,WNW,296,6.0,9.0,28,0.00,,,0.00,WeatherCatV1.11B39,2013-03-04 21:41:00,
2013-03-04 16:46:00,59.2,25.2,30.06,WSW,250,0.0,8.0,27,0.00,,,0.00,WeatherCatV1.11B39,2013-03-04 21:46:00,
2013-03-04 16:51:00,59.0,26.8,30.06,West,273,0.0,7.0,29,0.00,,,0.00,WeatherCatV1.11B39,2013-03-04 21:51:00,
2013-03-04 16:56:00,59.0,27.6,30.06,WNW,283,0.0,3.0,30,0.00,,,0.00,WeatherCatV1.11B39,2013-03-04 21:56:00,
2013-03-04 17:01:00,59.1,27.7,30.07,West,259,3.0,5.0,30,0.00,,,0.00,WeatherCatV1.11B39,2013-03-04 22:01:00,
2013-03-04 17:06:00,59.1,28.5,30.06,WSW,256,1.0,5.0,31,0.00,,,0.00,WeatherCatV1.11B39,2013-03-04 22:06:00,
2013-03-04 17:12:00,59.1,28.5,30.06,WSW,246,0.0,7.0,31,0.00,,,0.00,WeatherCatV1.11B39,2013-03-04 22:12:00,
2013-03-04 17:17:00,59.0,28.4,30.06,NW,312,0.0,0.0,31,0.00,,,0.00,WeatherCatV1.11B39,2013-03-04 22:17:00,
2013-03-04 17:22:00,59.0,29.9,30.06,WSW,256,5.0,6.0,33,0.00,,,0.00,WeatherCatV1.11B39,2013-03-04 22:22:00,
2013-03-04 17:27:00,59.0,29.2,30.06,West,275,1.0,3.0,32,0.00,,,0.00,WeatherCatV1.11B39,2013-03-04 22:27:00,
2013-03-04 17:32:00,59.0,30.7,30.06,SW,236,3.0,6.0,34,0.00,,,0.00,WeatherCatV1.11B39,2013-03-04 22:32:00,
2013-03-04 17:37:00,58.9,30.6,30.06,WSW,238,1.0,1.0,34,0.00,,,0.00,WeatherCatV1.11B39,2013-03-04 22:37:00,
2013-03-04 17:42:00,58.6,31.7,30.06,WSW,238,0.0,3.0,36,0.00,,,0.00,WeatherCatV1.11B39,2013-03-04 22:42:00,
2013-03-04 17:47:00,58.2,32.1,30.06,WSW,238,0.0,3.0,37,0.00,,,0.00,WeatherCatV1.11B39,2013-03-04 22:47:00,
2013-03-04 17:52:00,57.7,30.9,30.07,WSW,238,2.0,2.0,36,0.00,,,0.00,WeatherCatV1.11B39,2013-03-04 22:52:00,
2013-03-04 17:57:00,57.2,31.2,30.07,WSW,241,0.0,1.0,37,0.00,,,0.00,WeatherCatV1.11B39,2013-03-04 22:57:00,
2013-03-04 18:02:00,56.8,31.5,30.08,WSW,241,1.0,2.0,38,0.00,,,0.00,WeatherCatV1.11B39,2013-03-04 23:02:00,
2013-03-04 18:07:00,56.3,30.4,30.08,WSW,240,0.0,1.0,37,0.00,,,0.00,WeatherCatV1.11B39,2013-03-04 23:07:00,
2013-03-04 18:12:00,55.9,30.7,30.08,WSW,240,0.0,0.0,38,0.00,,,0.00,WeatherCatV1.11B39,2013-03-04 23:12:00,
2013-03-04 18:17:00,55.5,31.6,30.08,WSW,240,0.0,1.0,40,0.00,,,0.00,WeatherCatV1.11B39,2013-03-04 23:17:00,
2013-03-04 18:22:00,55.0,31.1,30.08,WSW,240,0.0,0.0,40,0.00,,,0.00,WeatherCatV1.11B39,2013-03-04 23:22:00,
2013-03-04 18:27:00,54.4,31.8,30.08,WSW,240,0.0,1.0,42,0.00,,,0.00,WeatherCatV1.11B39,2013-03-04 23:27:00,
2013-03-04 18:32:00,53.9,31.9,30.08,WSW,240,0.0,0.0,43,0.00,,,0.00,WeatherCatV1.11B39,2013-03-04 23:32:00,
2013-03-04 18:37:00,53.3,31.4,30.08,WSW,240,2.0,4.0,43,0.00,,,0.00,WeatherCatV1.11B39,2013-03-04 23:37:00,
2013-03-04 18:42:00,52.7,32.0,30.08,WSW,240,0.0,2.0,45,0.00,,,0.00,WeatherCatV1.11B39,2013-03-04 23:42:00,
2013-03-04 18:47:00,52.1,31.4,30.09,WSW,240,2.0,2.0,45,0.00,,,0.00,WeatherCatV1.11B39,2013-03-04 23:47:00,
2013-03-04 18:52:00,51.6,31.5,30.09,WSW,240,0.0,2.0,46,0.00,,,0.00,WeatherCatV1.11B39,2013-03-04 23:52:00,
2013-03-04 18:57:00,51.1,31.6,30.09,WSW,240,1.0,3.0,47,0.00,,,0.00,WeatherCatV1.11B39,2013-03-04 23:57:00,
2013-03-04 19:02:00,50.7,30.7,30.09,WSW,240,0.0,1.0,46,0.00,,,0.00,WeatherCatV1.11B39,2013-03-05 00:02:00,
2013-03-04 19:07:00,50.3,31.4,30.09,WSW,240,0.0,3.0,48,0.00,,,0.00,WeatherCatV1.11B39,2013-03-05 00:07:00,
2013-03-04 19:12:00,49.9,31.5,30.09,WSW,240,0.0,3.0,49,0.00,,,0.00,WeatherCatV1.11B39,2013-03-05 00:12:00,
2013-03-04 19:17:00,49.6,31.7,30.09,WSW,240,0.0,0.0,50,0.00,,,0.00,WeatherCatV1.11B39,2013-03-05 00:17:00,
2013-03-04 19:22:00,49.2,31.9,30.09,WSW,240,0.0,0.0,51,0.00,,,0.00,WeatherCatV1.11B39,2013-03-05 00:22:00,
2013-03-04 19:27:00,48.8,31.5,30.09,WSW,240,1.0,2.0,51,0.00,,,0.00,WeatherCatV1.11B39,2013-03-05 00:27:00,
2013-03-04 19:32:00,48.5,31.2,30.09,WSW,240,0.0,1.0,51,0.00,,,0.00,WeatherCatV1.11B39,2013-03-05 00:32:00,
2013-03-04 19:37:00,48.2,31.4,30.09,WSW,240,0.0,2.0,52,0.00,,,0.00,WeatherCatV1.11B39,2013-03-05 00:37:00,
2013-03-04 19:42:00,47.9,31.1,30.09,WSW,240,0.0,1.0,52,0.00,,,0.00,WeatherCatV1.11B39,2013-03-05 00:42:00,
2013-03-04 19:47:00,47.6,30.9,30.10,WSW,240,0.0,0.0,52,0.00,,,0.00,WeatherCatV1.11B39,2013-03-05 00:47:00,
2013-03-04 19:52:00,47.4,31.1,30.09,WSW,240,1.0,3.0,53,0.00,,,0.00,WeatherCatV1.11B39,2013-03-05 00:52:00,
2013-03-04 19:57:00,47.1,30.9,30.09,WSW,240,2.0,3.0,53,0.00,,,0.00,WeatherCatV1.11B39,2013-03-05 00:57:00,
2013-03-04 20:02:00,47.0,31.2,30.09,WSW,240,1.0,3.0,54,0.00,,,0.00,WeatherCatV1.11B39,2013-03-05 01:02:00,
2013-03-04 20:07:00,46.9,31.1,30.09,WSW,240,1.0,3.0,54,0.00,,,0.00,WeatherCatV1.11B39,2013-03-05 01:07:00,
2013-03-04 20:12:00,46.9,31.1,30.09,WSW,240,0.0,2.0,54,0.00,,,0.00,WeatherCatV1.11B39,2013-03-05 01:12:00,
2013-03-04 20:17:00,46.9,31.1,30.09,WSW,240,0.0,2.0,54,0.00,,,0.00,WeatherCatV1.11B39,2013-03-05 01:17:00,
2013-03-04 20:22:00,46.9,31.6,30.09,WSW,240,0.0,1.0,55,0.00,,,0.00,WeatherCatV1.11B39,2013-03-05 01:22:00,
2013-03-04 20:27:00,46.8,31.0,30.09,WSW,240,2.0,3.0,54,0.00,,,0.00,WeatherCatV1.11B39,2013-03-05 01:27:00,
2013-03-04 20:32:00,46.7,32.3,30.09,WSW,240,1.0,3.0,57,0.00,,,0.00,WeatherCatV1.11B39,2013-03-05 01:32:00,
2013-03-04 20:37:00,46.6,31.3,30.09,WSW,240,2.0,2.0,55,0.00,,,0.00,WeatherCatV1.11B39,2013-03-05 01:37:00,
2013-03-04 20:42:00,46.6,30.9,30.09,WSW,240,1.0,3.0,54,0.00,,,0.00,WeatherCatV1.11B39,2013-03-05 01:42:00,
2013-03-04 20:47:00,46.6,31.3,30.09,WSW,240,0.0,1.0,55,0.00,,,0.00,WeatherCatV1.11B39,2013-03-05 01:47:00,
2013-03-04 20:52:00,46.7,30.9,30.08,WSW,240,0.0,2.0,54,0.00,,,0.00,WeatherCatV1.11B39,2013-03-05 01:52:00,
2013-03-04 20:57:00,46.7,31.4,30.09,WSW,240,0.0,1.0,55,0.00,,,0.00,WeatherCatV1.11B39,2013-03-05 01:57:00,
2013-03-04 21:02:00,46.8,32.4,30.09,WSW,240,0.0,1.0,57,0.00,,,0.00,WeatherCatV1.11B39,2013-03-05 02:02:00,
2013-03-04 21:07:00,46.7,31.8,30.09,WSW,240,0.0,0.0,56,0.00,,,0.00,WeatherCatV1.11B39,2013-03-05 02:07:00,
2013-03-04 21:12:00,46.6,32.2,30.09,WSW,240,2.0,2.0,57,0.00,,,0.00,WeatherCatV1.11B39,2013-03-05 02:12:00,
2013-03-04 21:17:00,46.5,32.1,30.10,WSW,240,2.0,3.0,57,0.00,,,0.00,WeatherCatV1.11B39,2013-03-05 02:17:00,
2013-03-04 21:22:00,46.3,31.9,30.10,WSW,240,1.0,3.0,57,0.00,,,0.00,WeatherCatV1.11B39,2013-03-05 02:22:00,
2013-03-04 21:27:00,46.1,31.7,30.10,WSW,240,1.0,3.0,57,0.00,,,0.00,WeatherCatV1.11B39,2013-03-05 02:27:00,
2013-03-04 21:32:00,46.0,31.2,30.09,WSW,240,0.0,3.0,56,0.00,,,0.00,WeatherCatV1.11B39,2013-03-05 02:32:00,
2013-03-04 21:37:00,46.0,32.1,30.09,WSW,240,2.0,4.0,58,0.00,,,0.00,WeatherCatV1.11B39,2013-03-05 02:37:00,
2013-03-04 21:42:00,45.9,32.4,30.09,WSW,240,0.0,3.0,59,0.00,,,0.00,WeatherCatV1.11B39,2013-03-05 02:42:00,
2013-03-04 21:47:00,45.8,31.9,30.09,WSW,240,0.0,2.0,58,0.00,,,0.00,WeatherCatV1.11B39,2013-03-05 02:47:00,
2013-03-04 21:53:00,45.8,31.9,30.09,WSW,240,1.0,3.0,58,0.00,,,0.00,WeatherCatV1.11B39,2013-03-05 02:53:00,
2013-03-04 21:58:00,45.6,31.7,30.09,WSW,240,2.0,4.0,58,0.00,,,0.00,WeatherCatV1.11B39,2013-03-05 02:58:00,
2013-03-04 22:03:00,45.6,32.5,30.09,WSW,240,3.0,3.0,60,0.00,,,0.00,WeatherCatV1.11B39,2013-03-05 03:03:00,
2013-03-04 22:08:00,45.4,32.3,30.08,WSW,240,0.0,4.0,60,0.00,,,0.00,WeatherCatV1.11B39,2013-03-05 03:08:00,
2013-03-04 22:13:00,45.3,32.7,30.09,WSW,240,1.0,3.0,61,0.00,,,0.00,WeatherCatV1.11B39,2013-03-05 03:13:00,
2013-03-04 22:18:00,45.2,31.3,30.08,WSW,240,2.0,4.0,58,0.00,,,0.00,WeatherCatV1.11B39,2013-03-05 03:18:00,
2013-03-04 22:23:00,45.4,31.5,30.08,WSW,240,0.0,0.0,58,0.00,,,0.00,WeatherCatV1.11B39,2013-03-05 03:23:00,
2013-03-04 22:28:00,45.5,31.6,30.07,WSW,240,0.0,0.0,58,0.00,,,0.00,WeatherCatV1.11B39,2013-03-05 03:28:00,
2013-03-04 22:33:00,45.6,32.5,30.08,WSW,240,0.0,0.0,60,0.00,,,0.00,WeatherCatV1.11B39,2013-03-05 03:33:00,
2013-03-04 22:38:00,45.5,31.6,30.08,WSW,240,0.0,0.0,58,0.00,,,0.00,WeatherCatV1.11B39,2013-03-05 03:38:00,
2013-03-04 22:43:00,45.4,31.9,30.08,WSW,240,0.0,0.0,59,0.00,,,0.00,WeatherCatV1.11B39,2013-03-05 03:43:00,
2013-03-04 22:48:00,45.4,32.3,30.08,WSW,240,0.0,0.0,60,0.00,,,0.00,WeatherCatV1.11B39,2013-03-05 03:48:00,
2013-03-04 22:53:00,45.2,32.1,30.08,WSW,240,0.0,1.0,60,0.00,,,0.00,WeatherCatV1.11B39,2013-03-05 03:53:00,
2013-03-04 22:58:00,45.2,31.7,30.08,WSW,240,0.0,3.0,59,0.00,,,0.00,WeatherCatV1.11B39,2013-03-05 03:58:00,
2013-03-04 23:03:00,45.2,31.3,30.08,WSW,240,1.0,2.0,58,0.00,,,0.00,WeatherCatV1.11B39,2013-03-05 04:03:00,
2013-03-04 23:08:00,45.2,32.6,30.08,WSW,240,0.0,0.0,61,0.00,,,0.00,WeatherCatV1.11B39,2013-03-05 04:08:00,
2013-03-04 23:13:00,45.2,33.0,30.08,WSW,240,1.0,2.0,62,0.00,,,0.00,WeatherCatV1.11B39,2013-03-05 04:13:00,
2013-03-04 23:18:00,45.1,32.9,30.09,WSW,238,3.0,5.0,62,0.00,,,0.00,WeatherCatV1.11B39,2013-03-05 04:18:00,
2013-03-04 23:23:00,45.0,32.8,30.10,WSW,238,0.0,2.0,62,0.00,,,0.00,WeatherCatV1.11B39,2013-03-05 04:23:00,
2013-03-04 23:28:00,44.9,31.5,30.10,SW,233,0.0,3.0,59,0.00,,,0.00,WeatherCatV1.11B39,2013-03-05 04:28:00,
2013-03-04 23:33:00,44.9,31.0,30.09,SW,233,0.0,1.0,58,0.00,,,0.00,WeatherCatV1.11B39,2013-03-05 04:33:00,
2013-03-04 23:38:00,45.0,32.4,30.09,SW,233,0.0,0.0,61,0.00,,,0.00,WeatherCatV1.11B39,2013-03-05 04:38:00,
2013-03-04 23:43:00,44.7,32.9,30.09,SW,233,0.0,0.0,63,0.00,,,0.00,WeatherCatV1.11B39,2013-03-05 04:43:00,
2013-03-04 23:48:00,44.5,31.9,30.10,SW,233,0.0,0.0,61,0.00,,,0.00,WeatherCatV1.11B39,2013-03-05 04:48:00,
2013-03-04 23:53:00,44.3,32.5,30.10,SW,233,0.0,0.0,63,0.00,,,0.00,WeatherCatV1.11B39,2013-03-05 04:53:00,
2013-03-04 23:58:00,44.0,31.8,30.10,SW,233,0.0,0.0,62,0.00,,,0.00,WeatherCatV1.11B39,2013-03-05 04:58:00,